Weather History for Sisseton, SD

Change the Weather History Date:

Sunday, November 13, 2011

  Actual Average Record
Temperature  
Mean Temperature 42 °F 32 °F  
Max Temperature 50 °F 42 °F 71 °F (1939)
Min Temperature 33 °F 23 °F -7 °F (1940)
Degree Days  
Heating Degree Days 23 33  
Month to date heating degree days 313 382  
Since 1 July heating degree days 962 1209  
Cooling Degree Days 0 0  
Month to date cooling degree days 0 0  
Year to date cooling degree days 642 527  
Moisture  
Dew Point 26 °F    
Average Humidity 57    
Maximum Humidity 75    
Minimum Humidity 38    
Precipitation  
Precipitation 0.00 in 0.02 in 0.98 in (1993)
Month to date precipitation 0.06 0.36  
Year to date precipitation 21.03 21.72  
Snow  
Snow 0.00 in - - ()
Month to date snowfall 0.0  
Since 1 July snowfall 0.0  
Snow Depth 0.00 in    
Sea Level Pressure  
Sea Level Pressure 29.32 in    
Wind  
Wind Speed 12 mph (WNW)    
Max Wind Speed 25 mph    
Max Gust Speed 31 mph    
T = Trace of Precipitation, MM = Missing Value Source: NWS Daily Summary

Daily Weather History Graph

Daily Weather History Graph

Search for Another Location

Airport:

Trip Planner

Search our weather history database for the weather conditions in past years. The results will help you decide how hot, cold, wet, or windy it might be!

Date:

Astronomy

Nov. 13, 2011 Rise Set
Actual Time 7:24 AM CST 4:59 PM CST
Civil Twilight 6:52 AM CST 5:31 PM CST
Nautical Twilight 6:16 AM CST 6:07 PM CST
Astronomical Twilight 5:41 AM CST 6:42 PM CST
Moon 7:04 PM CST (11/13) 10:03 AM CST (11/13)
Length of Visible Light 10h 39m
Length of Day
9h 35m
Waning Gibbous, 92% of the Moon is Illuminated
Nov 13
Waning Gibbous
Nov 18
Last Quarter
Nov 25
New
Dec 2
First Quarter
Dec 10
Full

Hourly Weather History & Observations

Time (CST) Temp. Windchill Dew Point Humidity Pressure Visibility Wind Dir Wind Speed Gust Speed Precip Events Conditions
12:56 AM 43.0 °F 36.8 °F 23.0 °F 45% 29.19 in - NW 11.5 mph - N/A   Unknown
1:56 AM 39.0 °F - 23.0 °F 53% 29.20 in - Calm Calm - N/A   Unknown
2:56 AM 37.9 °F 32.1 °F 23.0 °F 55% 29.22 in - NNW 8.1 mph - N/A   Unknown
3:56 AM 35.1 °F 32.2 °F 21.9 °F 59% 29.24 in - NNW 3.5 mph - N/A   Unknown
4:56 AM 34.0 °F 25.0 °F 25.0 °F 70% 29.25 in - North 12.7 mph - N/A   Unknown
5:56 AM 33.1 °F 23.4 °F 27.0 °F 78% 29.29 in - NNW 13.8 mph - N/A   Unknown
6:56 AM 35.1 °F 26.4 °F 28.9 °F 78% 29.31 in - NNW 12.7 mph - N/A   Unknown
7:56 AM 36.0 °F 26.0 °F 28.9 °F 76% 29.33 in - NNW 17.3 mph - N/A   Unknown
8:56 AM 37.0 °F 28.9 °F 28.9 °F 73% 29.33 in - NNW 12.7 mph 20.7 mph N/A   Unknown
9:56 AM 37.9 °F 28.2 °F 28.9 °F 70% 29.32 in - NW 18.4 mph 25.3 mph N/A   Unknown
10:56 AM 39.9 °F 33.4 °F 28.9 °F 65% 29.33 in - NNW 10.4 mph - N/A   Unknown
11:56 AM 44.1 °F 37.4 °F 28.9 °F 55% 29.33 in - NW 13.8 mph - N/A   Unknown
12:56 PM 46.0 °F 39.6 °F 30.0 °F 54% 29.32 in - NW 15.0 mph - N/A   Unknown
1:56 PM 48.0 °F - 30.0 °F 50% 29.30 in - WNW 20.7 mph 28.8 mph N/A   Unknown
2:56 PM 48.9 °F - 27.0 °F 43% 29.31 in - West 16.1 mph - N/A   Unknown
3:56 PM 48.9 °F - 24.1 °F 38% 29.32 in - West 15.0 mph 23.0 mph N/A   Unknown
4:56 PM 46.0 °F 40.6 °F 23.0 °F 40% 29.35 in - West 11.5 mph - N/A   Unknown
5:56 PM 42.1 °F 37.1 °F 24.1 °F 49% 29.37 in - West 8.1 mph - N/A   Unknown
6:56 PM 39.9 °F 34.5 °F 24.1 °F 53% 29.38 in - WSW 8.1 mph - N/A   Unknown
7:56 PM 39.9 °F 33.4 °F 24.1 °F 53% 29.37 in - WSW 10.4 mph - N/A   Unknown
8:56 PM 41.0 °F 34.3 °F 24.1 °F 51% 29.38 in - WSW 11.5 mph - N/A   Unknown
9:56 PM 41.0 °F 36.4 °F 24.1 °F 51% 29.38 in - WSW 6.9 mph - N/A   Unknown
10:56 PM 42.1 °F 35.2 °F 24.1 °F 49% 29.37 in - WSW 12.7 mph - N/A   Unknown
11:56 PM 43.0 °F 35.4 °F 24.1 °F 47% 29.37 in - West 16.1 mph - N/A   Unknown